Weather History for KBBW - November, 2011

Change the Weather History Date:

Saturday, November 19, 2011

  Actual Average Record
Temperature  
Mean Temperature 24 °F 34 °F  
Max Temperature 32 °F 47 °F 79 °F (2007)
Min Temperature 16 °F 21 °F -2 °F (1948)
Degree Days  
Heating Degree Days 41 31  
Month to date heating degree days 513 500  
Cooling Degree Days 0 0  
Month to date cooling degree days 0 0  
Year to date cooling degree days 755 768  
Moisture  
Dew Point 21 °F    
Average Humidity 82    
Maximum Humidity 92    
Minimum Humidity 72    
Precipitation  
Precipitation T in 0.03 in 0.73 in (1948)
Sea Level Pressure  
Sea Level Pressure 29.79 in    
Wind  
Wind Speed 16 mph (North)    
Max Wind Speed 30 mph    
Max Gust Speed 36 mph    
Visibility 7 miles    
Events Rain , Snow    
T = Trace of Precipitation, MM = Missing Value Source: NWS Daily Summary

Daily Weather History Graph

Daily Weather History Graph

Search for Another Location

Airport or City:

Trip Planner

Search our weather history database for the weather conditions in past years. The results will help you decide how hot, cold, wet, or windy it might be!

Date:

Astronomy

Nov. 19, 2011 Rise Set
Actual Time 7:31 AM CST 5:15 PM CST
Civil Twilight 7:01 AM CST 5:45 PM CST
Nautical Twilight 6:27 AM CST 6:19 PM CST
Astronomical Twilight 5:54 AM CST 6:52 PM CST
Moon 12:49 AM CST (11/19) 1:38 PM CST (11/19)
Length of Visible Light 10h 44m
Length of Day
9h 44m
Last Quarter, 38% of the Moon is Illuminated
Nov 19
Last Quarter
Nov 25
New
Dec 2
First Quarter
Dec 10
Full
Dec 17
Last Quarter

Hourly Weather History & Observations

Time (CST) Temp. Windchill Dew Point Humidity Pressure Visibility Wind Dir Wind Speed Gust Speed Precip Events Conditions
12:53 AM 30.9 °F 19.4 °F 24.1 °F 76% 29.57 in 10.0 mi NE 17.3 mph 24.2 mph N/A   Clear
1:53 AM 30.0 °F 19.5 °F 23.0 °F 75% 29.55 in 10.0 mi NE 13.8 mph 20.7 mph N/A   Clear
2:36 AM 30.2 °F 19.3 °F 23.0 °F 75% 29.54 in 10.0 mi NE 15.0 mph - N/A   Mostly Cloudy
2:53 AM 30.9 °F 19.4 °F 23.0 °F 72% 29.56 in 10.0 mi NNE 17.3 mph 26.5 mph N/A   Overcast
3:53 AM 30.0 °F 17.5 °F 25.0 °F 82% 29.56 in 10.0 mi NE 19.6 mph 29.9 mph N/A   Overcast
4:42 AM 30.2 °F 16.5 °F 26.6 °F 86% 29.55 in 10.0 mi NNE 24.2 mph 32.2 mph N/A   Overcast
4:53 AM 28.0 °F 14.9 °F 25.0 °F 88% 29.58 in 7.0 mi NNE 19.6 mph 29.9 mph N/A   Overcast
5:09 AM 26.6 °F 12.4 °F 24.8 °F 93% 29.54 in 5.0 mi NNE 21.9 mph 32.2 mph 0.00 in Rain Light Freezing Rain
5:42 AM 26.6 °F 14.7 °F 23.0 °F 86% 29.58 in 7.0 mi NNE 15.0 mph 28.8 mph 0.00 in   Overcast
5:53 AM 27.0 °F 13.9 °F 23.0 °F 85% 29.63 in 5.0 mi North 18.4 mph 27.6 mph 0.00 in Rain Light Freezing Rain
6:01 AM 26.6 °F 14.7 °F 23.0 °F 86% 29.58 in 3.0 mi NNE 15.0 mph 26.5 mph 0.00 in Snow Light Snow
6:09 AM 26.6 °F 12.4 °F 23.0 °F 86% 29.58 in 2.5 mi NNE 21.9 mph 33.4 mph 0.00 in Snow Light Snow
6:22 AM 26.6 °F 13.8 °F 24.8 °F 93% 29.59 in 3.0 mi North 17.3 mph 28.8 mph 0.00 in   Overcast
6:33 AM 26.6 °F 12.0 °F 24.8 °F 93% 29.60 in 4.0 mi North 23.0 mph 29.9 mph 0.00 in Rain Light Freezing Rain
6:51 AM 26.6 °F 11.7 °F 23.0 °F 86% 29.62 in 4.0 mi North 24.2 mph 32.2 mph 0.00 in Rain Light Freezing Rain
6:53 AM 25.0 °F 10.9 °F 23.0 °F 92% 29.67 in 4.0 mi North 19.6 mph 32.2 mph 0.00 in Rain Light Freezing Rain
7:19 AM 24.8 °F 9.3 °F 23.0 °F 93% 29.66 in 4.0 mi North 24.2 mph 34.5 mph 0.00 in Snow Light Snow
7:53 AM 24.1 °F 8.0 °F 21.9 °F 91% 29.74 in 3.0 mi North 25.3 mph 35.7 mph 0.00 in Snow Light Snow
8:00 AM 24.8 °F 8.4 °F 21.2 °F 86% 29.69 in 2.5 mi North 27.6 mph 35.7 mph 0.00 in Snow Light Snow
8:18 AM 24.8 °F 9.3 °F 21.2 °F 86% 29.70 in 3.0 mi North 24.2 mph 32.2 mph 0.00 in Snow Blowing Snow
8:31 AM 24.8 °F 9.0 °F 21.2 °F 86% 29.70 in 4.0 mi North 25.3 mph 34.5 mph 0.00 in Rain Light Freezing Rain
8:53 AM 24.1 °F 9.8 °F 21.9 °F 91% 29.78 in 5.0 mi North 19.6 mph 29.9 mph 0.00 in Rain Light Freezing Rain
9:17 AM 24.8 °F 9.6 °F 21.2 °F 86% 29.74 in 6.0 mi North 23.0 mph 27.6 mph 0.00 in   Overcast
9:53 AM 24.1 °F 7.7 °F 21.9 °F 91% 29.79 in 7.0 mi North 26.5 mph 32.2 mph 0.00 in   Overcast
10:53 AM 24.1 °F 8.7 °F 21.0 °F 88% 29.86 in 10.0 mi NNW 23.0 mph 29.9 mph N/A   Overcast
11:53 AM 23.0 °F 7.2 °F 19.0 °F 85% 29.88 in 10.0 mi North 23.0 mph 28.8 mph N/A   Overcast
12:53 PM 21.9 °F 8.2 °F 19.0 °F 89% 29.92 in 10.0 mi North 16.1 mph - N/A   Overcast
1:53 PM 23.0 °F 8.7 °F 19.0 °F 85% 29.95 in 10.0 mi North 18.4 mph 25.3 mph N/A   Overcast
2:53 PM 23.0 °F 9.2 °F 17.6 °F 80% 29.90 in 10.0 mi North 17.3 mph - N/A   Overcast
3:53 PM 23.0 °F 11.1 °F 19.0 °F 85% 30.04 in 10.0 mi North 12.7 mph - N/A   Overcast
4:53 PM 23.0 °F 13.9 °F 18.0 °F 81% 30.11 in 10.0 mi NNW 8.1 mph - N/A   Overcast
5:11 PM 23.0 °F 13.9 °F 17.6 °F 80% 30.01 in 10.0 mi NNW 8.1 mph - N/A   Overcast
5:53 PM 23.0 °F 17.0 °F 18.0 °F 81% 30.14 in 10.0 mi NNW 4.6 mph - N/A   Overcast
6:53 PM 21.2 °F 11.7 °F 17.6 °F 86% 30.08 in 10.0 mi NNW 8.1 mph - N/A   Overcast
7:53 PM 18.0 °F 6.1 °F 15.1 °F 88% 30.19 in 10.0 mi North 10.4 mph - N/A   Scattered Clouds
8:53 PM 18.0 °F 6.9 °F 15.1 °F 88% 30.20 in 10.0 mi North 9.2 mph - N/A   Clear
9:53 PM 19.0 °F 7.5 °F 15.1 °F 85% 30.22 in 10.0 mi North 10.4 mph - N/A   Mostly Cloudy
10:53 PM 17.6 °F 5.0 °F 14.0 °F 86% 30.13 in 10.0 mi North 11.5 mph - N/A   Clear
11:53 PM 16.0 °F 3.6 °F 12.9 °F 88% 30.24 in 10.0 mi North 10.4 mph - N/A   Clear